User: anonymous   Login
Location: Unspecified
(0.0000°N, 0.0000°E)
Time: 09:24:03
(UTC+00:00)
Language:

PLEIADES 1B - Orbit

View from above orbital plane
View from above orbital plane
View from above satellite
View from above satellite

Ground track
Ground track

The orbit data is extracted from the following two-line orbital elements,

1 39019U 12068A   15088.78127215  .00000414  00000-0  98724-4 0  9997
2 39019 098.1685 164.5146 0001257 084.4966 275.6375 14.58572934123582
Epoch (UTC): 29 March 2015 18:45:01
Eccentricity: 0.0001257
inclination: 98.1685°
perigee height: 697 km
apogee height: 698 km
right ascension of ascending node: 164.5146°
argument of perigee: 84.4966°
revolutions per day: 14.58572934
mean anomaly at epoch: 275.6375°
orbit number at epoch: 12358

The dashed part of the orbit path shows where the satellite is in the earth's shadow,  

DLR